CW5842 Weather Reports


time (UTC)temp
F
wind
direction
speed
knots
gust
knots
rain 1hr
in
rain 24hr
in
rain mn
in
humidity
%
barometer
mb
20260906224024 98 103 7.0 11.3 0.00 0.00 0.00 39 1011.2
20260906223524 97 96 3.5 11.3 0.00 0.00 0.00 38 1011.2
20260906223045 97 49 6.1 11.3 0.00 0.00 0.00 38 1011.1
20260906222524 98 86 4.3 13.9 0.00 0.00 0.00 37 1011.2
20260906222024 99 101 5.2 13.9 0.00 0.00 0.00 37 1011.1
20260906221545 99 54 7.8 12.2 0.00 0.00 0.00 37 1011.3
20260906221025 99 105 7.0 10.4 0.00 0.00 0.00 36 1011.3
20260906220524 99 85 1.7 7.0 0.00 0.00 0.00 36 1011.2
20260906220047 100 14 3.5 10.4 0.00 0.00 0.00 35 1011.3
20260906215524 100 94 3.5 10.4 0.00 0.00 0.00 35 1011.4
20260906215025 100 98 4.3 8.7 0.00 0.00 0.00 36 1011.4
20260906214549 99 55 2.6 11.3 0.00 0.00 0.00 36 1011.4
20260906214025 99 63 5.2 11.3 0.00 0.00 0.00 37 1011.4
20260906213525 99 102 1.7 9.6 0.00 0.00 0.00 37 1011.5
20260906213046 98 118 2.6 7.8 0.00 0.00 0.00 36 1011.5
20260906212524 98 53 4.3 8.7 0.00 0.00 0.00 36 1011.6
20260906212026 98 80 5.2 9.6 0.00 0.00 0.00 36 1011.7
20260906211548 98 38 3.5 10.4 0.00 0.00 0.00 36 1011.7
20260906211024 97 115 3.5 11.3 0.00 0.00 0.00 38 1011.8
20260906210525 98 92 7.0 11.3 0.00 0.00 0.00 37 1012.0
20260906205525 98 185 2.6 11.3 0.00 0.00 0.00 37 1012.1
20260906205024 98 80 6.1 11.3 0.00 0.00 0.00 36 1012.2
20260906204544 99 119 4.3 12.2 0.00 0.00 0.00 36 1012.3
20260906204025 99 90 2.6 12.2 0.00 0.00 0.00 36 1012.2
20260906203525 99 77 2.6 9.6 0.00 0.00 0.00 37 1012.2
20260906203049 98 156 1.7 14.8 0.00 0.00 0.00 37 1012.3
20260906202527 98 78 4.3 14.8 0.00 0.00 0.00 37 1012.3
20260906202025 98 95 5.2 14.8 0.00 0.00 0.00 37 1012.3
20260906201610 98 23 4.3 10.4 0.00 0.00 0.00 37 1012.4
20260906201025 98 51 7.0 11.3 0.00 0.00 0.00 37 1012.5
20260906200525 98 123 3.5 11.3 0.00 0.00 0.00 39 1012.8
20260906200044 98 113 4.3 11.3 0.00 0.00 0.00 38 1012.8
20260906195525 97 55 3.5 11.3 0.00 0.00 0.00 39 1012.8
20260906195024 97 51 7.0 12.2 0.00 0.00 0.00 39 1012.9
20260906194546 97 130 5.2 12.2 0.00 0.00 0.00 39 1013.0
20260906194022 97 86 0.9 9.6 0.00 0.00 0.00 38 1012.9
20260906193525 98 88 6.1 10.4 0.00 0.00 0.00 38 1013.0
20260906193046 97 88 2.6 10.4 0.00 0.00 0.00 39 1013.1
20260906192525 97 46 2.6 10.4 0.00 0.00 0.00 40 1013.1
20260906192025 97 113 2.6 12.2 0.00 0.00 0.00 40 1013.2
20260906191559 97 173 4.3 12.2 0.00 0.00 0.00 40 1013.3
20260906191025 97 121 2.6 11.3 0.00 0.00 0.00 40 1013.3
20260906190525 97 202 1.7 12.2 0.00 0.00 0.00 41 1013.3
20260906190043 97 105 6.1 12.2 0.00 0.00 0.00 41 1013.4
20260906185526 97 0 2.6 10.4 0.00 0.00 0.00 42 1013.4
20260906185023 96 74 2.6 10.4 0.00 0.00 0.00 42 1013.5
20260906184550 96 64 5.2 10.4 0.00 0.00 0.00 41 1013.5
20260906184026 96 108 3.5 8.7 0.00 0.00 0.00 43 1013.5
20260906183525 95 75 3.5 8.7 0.00 0.00 0.00 43 1013.6
20260906183046 95 82 4.3 8.7 0.00 0.00 0.00 44 1013.7
20260906182530 95 80 5.2 8.7 0.00 0.00 0.00 43 1013.7
20260906182026 95 103 2.6 11.3 0.00 0.00 0.00 44 1013.8
20260906181559 95 93 5.2 11.3 0.00 0.00 0.00 44 1013.9
20260906181027 94 136 0.9 7.8 0.00 0.00 0.00 46 1013.9
20260906180526 94 11 0.9 9.6 0.00 0.00 0.00 47 1014.0
20260906180049 94 79 4.3 9.6 0.00 0.00 0.00 46 1014.2
20260906175525 94 56 3.5 13.0 0.00 0.00 0.00 46 1014.2
20260906175029 94 98 4.3 13.0 0.00 0.00 0.00 46 1014.2
20260906174546 95 92 4.3 8.7 0.00 0.00 0.00 45 1014.3
20260906174102 95 203 1.7 9.6 0.00 0.00 0.00 45 1014.3
20260906173525 94 323 2.6 10.4 0.00 0.00 0.00 46 1014.4
20260906173044 95 176 5.2 10.4 0.00 0.00 0.00 45 1014.5
20260906172525 94 87 6.1 10.4 0.00 0.00 0.00 46 1014.5
20260906172024 94 85 4.3 10.4 0.00 0.00 0.00 48 1014.6
20260906171544 94 63 6.1 10.4 0.00 0.00 0.00 48 1014.8
20260906171025 94 79 5.2 10.4 0.00 0.00 0.00 47 1014.9
20260906170524 93 196 2.6 7.8 0.00 0.00 0.00 49 1014.9
20260906170043 93 105 0.9 11.3 0.00 0.00 0.00 49 1015.1
20260906165522 93 126 5.2 11.3 0.00 0.00 0.00 48 1015.2
20260906165025 93 77 1.7 7.8 0.00 0.00 0.00 50 1015.2
20260906164549 93 71 3.5 11.3 0.00 0.00 0.00 48 1015.2
20260906164026 93 138 5.2 11.3 0.00 0.00 0.00 49 1015.3
20260906163525 93 103 4.3 11.3 0.00 0.00 0.00 48 1015.3
20260906163055 93 135 3.5 11.3 0.00 0.00 0.00 49 1015.3
20260906162524 93 5 2.6 11.3 0.00 0.00 0.00 51 1015.4
20260906162026 93 96 5.2 9.6 0.00 0.00 0.00 51 1015.4
20260906161544 92 57 2.6 7.8 0.00 0.00 0.00 53 1015.3
20260906161024 92 0 0.9 7.0 0.00 0.00 0.00 53 1015.2
20260906160521 91 360 1.7 6.1 0.00 0.00 0.00 54 1015.2
20260906160048 91 47 0.9 7.0 0.00 0.00 0.00 55 1015.1
20260906155523 90 103 4.3 7.0 0.00 0.00 0.00 55 1015.1
20260906155024 90 57 1.7 6.1 0.00 0.00 0.00 56 1015.2
20260906154547 90 11 0.9 5.2 0.00 0.00 0.00 58 1015.1
20260906154025 89 215 1.7 7.0 0.00 0.00 0.00 58 1015.1
20260906153527 89 236 0.9 7.0 0.00 0.00 0.00 59 1015.0
20260906153045 89 86 2.6 7.0 0.00 0.00 0.00 58 1015.1
20260906152528 89 136 0.0 4.3 0.00 0.00 0.00 60 1015.0
20260906152024 88 234 0.9 2.6 0.00 0.00 0.00 60 1015.0
20260906151543 88 5 0.0 2.6 0.00 0.00 0.00 61 1015.0
20260906151025 87 141 0.9 4.3 0.00 0.00 0.00 63 1015.0
20260906150521 87 221 1.7 4.3 0.00 0.00 0.00 63 1015.0
20260906150048 86 131 1.7 3.5 0.00 0.00 0.00 64 1015.1
20260906145526 86 0 1.7 5.2 0.00 0.00 0.00 64 1015.1
20260906145024 85 117 0.9 5.2 0.00 0.00 0.00 66 1015.0
20260906144544 85 86 1.7 5.2 0.00 0.00 0.00 67 1015.1
20260906144026 84 69 0.9 6.1 0.00 0.00 0.00 68 1015.1
20260906143525 84 90 2.6 6.1 0.00 0.00 0.00 68 1015.1
20260906143049 84 109 2.6 6.1 0.00 0.00 0.00 68 1015.2
20260906142525 83 55 2.6 6.1 0.00 0.00 0.00 70 1015.2
20260906142026 83 130 1.7 3.5 0.00 0.00 0.00 70 1015.3
20260906141542 82 88 1.7 3.5 0.00 0.00 0.00 71 1015.3
20260906141029 82 101 1.7 3.5 0.00 0.00 0.00 71 1015.3
20260906140525 81 92 0.9 3.5 0.00 0.00 0.00 72 1015.1
20260906140059 81 117 1.7 3.5 0.00 0.00 0.00 73 1015.2
20260906135525 80 159 0.9 5.2 0.00 0.00 0.00 74 1015.2
20260906135027 80 95 1.7 5.2 0.00 0.00 0.00 74 1015.2
20260906134549 79 109 2.6 5.2 0.00 0.00 0.00 74 1015.1
20260906134026 79 109 1.7 5.2 0.00 0.00 0.00 75 1015.0
20260906133527 79 83 1.7 3.5 0.00 0.00 0.00 75 1015.0
20260906133045 78 69 0.9 2.6 0.00 0.00 0.00 75 1015.1
20260906132522 78 90 0.9 2.6 0.00 0.00 0.00 76 1015.1
20260906132024 78 88 0.9 2.6 0.00 0.00 0.00 76 1015.0
20260906131543 78 0 0.0 0.0 0.00 0.00 0.00 76 1014.9
20260906131028 77 0 0.0 0.0 0.00 0.00 0.00 76 1015.0
20260906130525 77 0 0.0 0.0 0.00 0.00 0.00 77 1014.8
20260906130050 77 0 0.0 0.0 0.00 0.00 0.00 77 1014.7
20260906125525 76 0 0.0 0.0 0.00 0.00 0.00 78 1014.7
20260906125024 75 0 0.0 0.0 0.00 0.00 0.00 78 1014.6
20260906124552 75 0 0.0 0.0 0.00 0.00 0.00 78 1014.6
20260906124023 74 0 0.0 0.0 0.00 0.00 0.00 79 1014.5
20260906123524 74 0 0.0 0.0 0.00 0.00 0.00 79 1014.5
20260906123045 74 0 0.0 0.0 0.00 0.00 0.00 78 1014.5
20260906122526 74 0 0.0 0.0 0.00 0.00 0.00 78 1014.4
20260906122028 74 0 0.0 0.0 0.00 0.00 0.00 78 1014.3
20260906121553 74 0 0.0 0.0 0.00 0.00 0.00 78 1014.3
20260906121024 74 0 0.0 0.0 0.00 0.00 0.00 78 1014.4
20260906120525 74 0 0.0 0.0 0.00 0.00 0.00 78 1014.2
20260906120055 74 0 0.0 0.0 0.00 0.00 0.00 78 1014.2
20260906115527 74 0 0.0 0.0 0.00 0.00 0.00 78 1014.2
20260906115024 74 0 0.0 0.0 0.00 0.00 0.00 78 1014.1
20260906114559 74 0 0.0 0.0 0.00 0.00 0.00 78 1014.0
20260906114022 74 0 0.0 0.0 0.00 0.00 0.00 78 1014.0
20260906113527 74 0 0.0 0.0 0.00 0.00 0.00 78 1013.9
20260906113059 74 0 0.0 0.0 0.00 0.00 0.00 78 1013.9
20260906112524 74 0 0.0 0.0 0.00 0.00 0.00 77 1013.9
20260906112025 74 0 0.0 0.0 0.00 0.00 0.00 77 1013.9
20260906111545 74 0 0.0 0.0 0.00 0.00 0.00 77 1013.9
20260906111025 74 0 0.0 0.0 0.00 0.00 0.00 77 1013.9
20260906110526 74 0 0.0 0.0 0.00 0.00 0.00 77 1013.8
20260906110046 75 0 0.0 0.0 0.00 0.00 0.00 77 1013.8
20260906105525 75 0 0.0 0.0 0.00 0.00 0.00 77 1013.7
20260906105024 75 0 0.0 0.0 0.00 0.00 0.00 77 1013.7
20260906104543 75 0 0.0 0.0 0.00 0.00 0.00 77 1013.7
20260906104022 75 0 0.0 0.0 0.00 0.00 0.00 77 1013.7
20260906103522 75 0 0.0 0.0 0.00 0.00 0.00 77 1013.6
20260906103045 75 0 0.0 0.0 0.00 0.00 0.00 77 1013.6
20260906102525 75 0 0.0 0.0 0.00 0.00 0.00 77 1013.6
20260906102027 75 0 0.0 0.0 0.00 0.00 0.00 77 1013.6
20260906101544 75 0 0.0 0.0 0.00 0.00 0.00 76 1013.6
20260906101028 75 0 0.0 0.0 0.00 0.00 0.00 76 1013.6
20260906100524 75 0 0.0 0.0 0.00 0.00 0.00 75 1013.5
20260906100045 75 0 0.0 0.0 0.00 0.00 0.00 75 1013.4
20260906095520 76 0 0.0 0.0 0.00 0.00 0.00 76 1013.4
20260906095024 76 0 0.0 0.0 0.00 0.00 0.00 76 1013.3
20260906094548 76 0 0.0 0.0 0.00 0.00 0.00 76 1013.3
20260906094023 76 0 0.0 0.0 0.00 0.00 0.00 76 1013.1
20260906093525 76 0 0.0 0.0 0.00 0.00 0.00 75 1013.1
20260906093045 76 0 0.0 0.0 0.00 0.00 0.00 75 1013.1
20260906092524 76 0 0.0 0.0 0.00 0.00 0.00 75 1013.0
20260906092026 77 0 0.0 0.0 0.00 0.00 0.00 74 1013.0
20260906091547 77 0 0.0 0.0 0.00 0.00 0.00 74 1013.0
20260906091023 77 0 0.0 0.0 0.00 0.00 0.00 74 1012.9
20260906090523 77 0 0.0 0.0 0.00 0.00 0.00 74 1013.0
20260906090048 77 0 0.0 0.0 0.00 0.00 0.00 73 1013.0
20260906085525 77 0 0.0 0.0 0.00 0.00 0.00 73 1013.0
20260906085024 78 0 0.0 0.0 0.00 0.00 0.00 73 1013.0
20260906084546 78 0 0.0 0.0 0.00 0.00 0.00 73 1013.1
20260906084023 78 0 0.0 0.0 0.00 0.00 0.00 73 1013.1
20260906083521 78 0 0.0 0.0 0.00 0.00 0.00 74 1013.2
20260906083045 78 0 0.0 0.0 0.00 0.00 0.00 73 1013.1
20260906082524 78 0 0.0 0.0 0.00 0.00 0.00 73 1013.1
20260906082021 78 0 0.0 0.0 0.00 0.00 0.00 73 1013.2
20260906081547 78 0 0.0 0.0 0.00 0.00 0.00 73 1013.2
20260906081025 78 0 0.0 0.0 0.00 0.00 0.00 72 1013.2
20260906080525 78 0 0.0 0.0 0.00 0.00 0.00 72 1013.3
20260906080044 78 0 0.0 0.0 0.00 0.00 0.00 71 1013.3
20260906075524 78 0 0.0 0.0 0.00 0.00 0.00 71 1013.3
20260906075023 79 0 0.0 0.0 0.00 0.00 0.00 71 1013.1
20260906074545 79 0 0.0 0.0 0.00 0.00 0.00 71 1013.2
20260906074024 79 0 0.0 0.0 0.00 0.00 0.00 70 1013.2
20260906073525 79 0 0.0 0.0 0.00 0.00 0.00 70 1013.2
20260906073047 80 0 0.0 0.0 0.00 0.00 0.00 69 1013.3
20260906072524 80 0 0.0 0.0 0.00 0.00 0.00 70 1013.3
20260906072025 80 0 0.0 0.0 0.00 0.00 0.00 70 1013.4
20260906071544 80 0 0.0 0.0 0.00 0.00 0.00 70 1013.5
20260906071025 80 0 0.0 0.0 0.00 0.00 0.00 69 1013.5
20260906070527 80 0 0.0 0.0 0.00 0.00 0.00 69 1013.6
20260906070044 80 0 0.0 0.0 0.00 0.00 0.00 69 1013.7
20260906065525 80 0 0.0 0.0 0.00 0.00 0.00 68 1013.7
20260906065019 80 0 0.0 0.0 0.00 0.00 0.00 68 1013.8
20260906064545 81 0 0.0 0.0 0.00 0.00 0.00 68 1013.7
20260906064024 81 0 0.0 0.0 0.00 0.00 0.00 68 1013.7
20260906063521 81 0 0.0 0.0 0.00 0.00 0.00 68 1013.7
20260906063045 81 0 0.0 0.0 0.00 0.00 0.00 68 1013.9
20260906062526 81 0 0.0 0.0 0.00 0.00 0.00 67 1013.9
20260906062024 81 0 0.0 0.0 0.00 0.00 0.00 67 1014.0
20260906061546 82 0 0.0 1.7 0.00 0.00 0.00 67 1014.0
20260906061023 82 0 0.0 1.7 0.00 0.00 0.00 66 1014.0
20260906060524 82 0 0.0 0.0 0.00 0.00 0.00 67 1014.0
20260906055524 82 0 0.0 0.0 0.00 0.00 0.00 66 1014.0
20260906055024 82 0 0.0 0.0 0.00 0.00 0.00 66 1014.0
20260906054546 82 0 0.0 1.7 0.00 0.00 0.00 66 1014.1
20260906054024 82 0 0.0 1.7 0.00 0.00 0.00 66 1014.0
20260906053525 82 0 0.0 0.0 0.00 0.00 0.00 65 1014.1
20260906053045 82 0 0.0 0.0 0.00 0.00 0.00 64 1014.0
20260906052531 83 0 0.0 0.0 0.00 0.00 0.00 64 1014.0
20260906052024 83 0 0.0 0.0 0.00 0.00 0.00 63 1013.9
20260906051545 83 0 0.0 0.0 0.00 0.00 0.00 64 1013.8
20260906051024 83 0 0.0 0.0 0.00 0.00 0.00 64 1013.8
20260906050617 83 0 0.0 0.0 0.00 0.00 0.00 63 1013.8
20260906050053 83 0 0.0 0.0 0.00 0.00 0.00 63 1013.8
20260906045524 84 0 0.0 0.0 0.00 0.00 0.00 63 1013.8
20260906045024 84 0 0.0 0.0 0.00 0.00 0.00 62 1013.9
20260906044546 84 0 0.0 0.0 0.00 0.00 0.00 62 1013.9
20260906044025 84 0 0.0 0.0 0.00 0.00 0.00 61 1013.8
20260906043524 84 0 0.0 0.0 0.00 0.00 0.00 61 1013.8
20260906043044 85 0 0.0 0.9 0.00 0.00 0.00 61 1013.8
20260906042525 85 0 0.0 1.7 0.00 0.00 0.00 60 1013.8
20260906042025 85 0 0.0 1.7 0.00 0.00 0.00 60 1013.8
20260906041546 85 144 0.0 2.6 0.00 0.00 0.00 60 1013.7
20260906041025 85 0 0.0 3.5 0.00 0.00 0.00 60 1013.8
20260906040521 86 153 0.0 3.5 0.00 0.00 0.00 60 1013.8
20260906040044 86 140 0.0 5.2 0.00 0.00 0.00 59 1013.7
20260906035533 86 163 0.9 5.2 0.00 0.00 0.00 59 1013.8
20260906035024 86 123 1.7 5.2 0.00 0.00 0.00 59 1014.0
20260906034555 86 0 0.0 3.5 0.00 0.00 0.00 58 1014.0
20260906034024 86 129 1.7 3.5 0.00 0.00 0.00 58 1014.0
20260906033524 87 136 0.0 3.5 0.00 0.00 0.00 57 1014.0
20260906033045 87 0 0.9 3.5 0.00 0.00 0.00 57 1013.9
20260906032523 87 103 0.9 3.5 0.00 0.00 0.00 56 1013.9
20260906032026 87 105 1.7 3.5 0.00 0.00 0.00 56 1013.8
20260906031606 87 103 0.9 5.2 0.00 0.00 0.00 55 1013.7
20260906031023 88 128 0.0 5.2 0.00 0.00 0.00 55 1013.7
20260906030525 88 0 0.0 3.5 0.00 0.00 0.00 54 1013.6
20260906030050 88 0 0.0 1.7 0.00 0.00 0.00 53 1013.6
20260906025528 88 0 0.0 4.3 0.00 0.00 0.00 53 1013.4
20260906025024 89 0 0.9 4.3 0.00 0.00 0.00 53 1013.3
20260906024555 89 128 0.9 6.1 0.00 0.00 0.00 53 1013.2
20260906024025 89 213 0.9 9.6 0.00 0.00 0.00 52 1013.2
20260906023524 89 167 2.6 9.6 0.00 0.00 0.00 52 1013.1
20260906023101 89 0 0.0 3.5 0.00 0.00 0.00 51 1013.0
20260906022525 89 113 0.0 4.3 0.00 0.00 0.00 51 1013.0
20260906022025 90 0 0.9 7.8 0.00 0.00 0.00 51 1012.8
20260906021543 90 121 2.6 9.6 0.00 0.00 0.00 51 1012.9
20260906021025 90 122 3.5 9.6 0.00 0.00 0.00 51 1012.8
20260906020524 90 130 3.5 7.0 0.00 0.00 0.00 51 1012.7
20260906020055 90 133 2.6 7.0 0.00 0.00 0.00 51 1012.7
20260906015525 90 120 2.6 9.6 0.00 0.00 0.00 50 1012.5
20260906015021 90 129 2.6 9.6 0.00 0.00 0.00 50 1012.5
20260906014546 90 101 2.6 9.6 0.00 0.00 0.00 50 1012.4
20260906014026 90 113 2.6 7.8 0.00 0.00 0.00 50 1012.2
20260906013527 90 125 3.5 9.6 0.00 0.00 0.00 49 1012.2
20260906013045 91 124 3.5 10.4 0.00 0.00 0.00 49 1012.2
20260906012522 91 130 5.2 10.4 0.00 0.00 0.00 48 1012.1
20260906012026 91 94 4.3 12.2 0.00 0.00 0.00 47 1012.0
20260906011544 92 104 6.1 12.2 0.00 0.00 0.00 46 1011.8
20260906011024 92 98 3.5 8.7 0.00 0.00 0.00 43 1011.8
20260906010524 93 0 0.0 2.6 0.00 0.00 0.00 41 1011.5
20260906010044 93 146 0.0 2.6 0.00 0.00 0.00 41 1011.5
20260906005524 94 138 0.0 2.6 0.00 0.00 0.00 40 1011.6
20260906005025 94 0 0.0 3.5 0.00 0.00 0.00 40 1011.5
20260906004549 94 127 0.9 7.8 0.00 0.00 0.00 39 1011.5
20260906004027 94 123 1.7 7.8 0.00 0.00 0.00 39 1011.5
20260906003526 95 144 2.6 7.8 0.00 0.00 0.00 39 1011.6
20260906003049 95 126 0.0 5.2 0.00 0.00 0.00 38 1011.5
20260906002524 95 118 1.7 5.2 0.00 0.00 0.00 38 1011.4
20260906002024 95 129 1.7 5.2 0.00 0.00 0.00 37 1011.4
20260906001546 96 123 1.7 9.6 0.00 0.00 0.00 37 1011.4
20260906001025 96 109 4.3 9.6 0.00 0.00 0.00 37 1011.3
20260906000525 96 127 0.9 8.7 0.00 0.00 0.00 37 1011.3
20260906000047 96 146 1.7 8.7 0.00 0.00 0.00 36 1011.3
20260905235525 96 111 2.6 8.7 0.00 0.00 0.00 36 1011.2
20260905235028 97 118 2.6 7.0 0.00 0.00 0.00 36 1011.3
20260905234547 97 175 0.9 8.7 0.00 0.00 0.00 36 1011.3
20260905234025 97 126 3.5 8.7 0.00 0.00 0.00 36 1011.2
20260905233524 97 91 3.5 9.6 0.00 0.00 0.00 35 1011.2
20260905233049 97 162 3.5 9.6 0.00 0.00 0.00 35 1011.1
20260905232525 97 103 1.7 9.6 0.00 0.00 0.00 35 1011.1
20260905232025 97 89 4.3 9.6 0.00 0.00 0.00 35 1011.1
20260905231548 98 48 2.6 7.8 0.00 0.00 0.00 35 1011.2
20260905231028 98 76 0.9 7.8 0.00 0.00 0.00 35 1011.3
20260905230523 98 105 2.6 7.8 0.00 0.00 0.00 35 1011.3
20260905230045 98 80 3.5 9.6 0.00 0.00 0.00 35 1011.3
20260905225524 98 129 4.3 10.4 0.00 0.00 0.00 35 1011.3
20260905225024 98 46 6.1 11.3 0.00 0.00 0.00 36 1011.2
20260905224547 98 90 4.3 11.3 0.00 0.00 0.00 36 1011.2